User: anonymous
Location: Seminole
(32.7190°N, 102.6440°W)
Time: 19:38:25
(UTC-05:00)
Language:

Meteor 2-10 - Orbit

View from above orbital plane
View from above orbital plane
View from above satellite
View from above satellite

Ground track
Ground track

The orbit data is extracted from the following two-line orbital elements,

1 14452U 83109A   14109.20149806  .00000182  00000-0  67327-4 0  4784
2 14452 081.1618 161.9555 0091933 130.5869 230.3358 14.26219034584375
Epoch (UTC): 19 April 2014 04:50:09
Eccentricity: 0.0091933
inclination: 81.1618°
perigee height: 738 km
apogee height: 870 km
right ascension of ascending node: 161.9555°
argument of perigee: 130.5869°
revolutions per day: 14.26219034
mean anomaly at epoch: 230.3358°
orbit number at epoch: 58437

The dashed part of the orbit path shows where the satellite is in the earth's shadow,  

DLR